Flag for U.S.A. Weather past 2 weeks in Lakewood, Colorado, U.S.A.

Now
64 °F

Broken clouds.


Feels Like: 64 °F
Forecast: 64 / 85 °F
Wind: No wind

Location: Centennial Airport

Current Time: Jul 1, 2015 at 7:24:35 AM

Latest Report: Jul 1, 2015 at 6:53 AM


Visibility: 10 mi

Pressure: 29.95 "Hg

Humidity: 75%

Dew point: 56 °F

Location of LakewoodLocation

Historic Weather in Lakewood — Graph

°F

Lakewood temperature yesterday

Maximum temperature yesterday: 90 °F (at 3:53 PM)
Minimum temperature yesterday: 59 °F (at 5:53 AM)
Average temperature yesterday: 75 °F

Past Weeks' High & Low Weather Summary

 TemperatureHumidityPressure
High91 °F (Jun 19, 2:53 PM)93% (Jun 17, 5:53 AM)30.30 "Hg (Jun 17, 5:53 AM)
Low54 °F (Jun 17, 5:53 AM)13% (Jun 19, 11:53 AM)29.70 "Hg (Jun 21, 6:53 PM)
Average72 °F52%29.97 "Hg
* Reported Jun 16 5:53 AM — Jul 1 5:53 AM, Lakewood, Weather by CustomWeather, © 2015

Note: Actual official high and low records may vary slightly from our data, if they occured in-between our weather recording intervals... More about our weather records

Advertising

Lakewood weather history for previous 24 hours

 ConditionsComfort  
Time TempWeatherWind HumidityBarometerVisibility
5:53 AM
Wed, Jul 1
62 °FPassing clouds.5 mph73%29.93 "Hg10 mi
4:53 AM65 °FPassing clouds.No wind63%29.90 "Hg10 mi
3:53 AM63 °FPassing clouds.7 mph70%29.89 "Hg10 mi
2:53 AM65 °FPassing clouds.5 mph68%29.90 "Hg10 mi
1:53 AM68 °FPassing clouds.3 mph61%29.90 "Hg10 mi
12:53 AM70 °FMostly cloudy.No wind55%29.92 "Hg10 mi
11:53 PM
Tue, Jun 30
73 °FMostly cloudy.5 mph46%29.94 "Hg10 mi
9:53 PM75 °FMostly cloudy.14 mph42%29.91 "Hg10 mi
8:53 PM74 °FMore clouds than sun.8 mph43%29.90 "Hg10 mi
7:53 PM80 °FCloudy.15 mph32%29.93 "Hg10 mi
6:53 PM82 °FBroken clouds.6 mph29%29.88 "Hg10 mi
5:53 PM82 °FBroken clouds.16 mph31%29.91 "Hg10 mi
4:53 PM88 °FBroken clouds.3 mph20%29.86 "Hg10 mi
3:53 PM90 °FScattered clouds.5 mph21%29.86 "Hg10 mi
2:53 PM89 °FScattered clouds.7 mph19%29.87 "Hg10 mi
1:53 PM87 °FScattered clouds.6 mph18%29.91 "Hg10 mi
12:53 PM86 °FScattered clouds.8 mph20%29.94 "Hg10 mi
11:53 AM84 °FScattered clouds.5 mph20%29.94 "Hg10 mi
10:53 AM82 °FScattered clouds.No wind31%29.96 "Hg10 mi
9:53 AM78 °FScattered clouds.3 mph37%29.96 "Hg10 mi
8:53 AM74 °FScattered clouds.8 mph45%29.98 "Hg10 mi
7:53 AM71 °FScattered clouds.8 mph51%29.98 "Hg10 mi
Weather by CustomWeather, © 2015

See weather overviewHow to use our weather pages